• In Latvia
  • List of Countries
  • For 7 days
  • Water Temperature
  • Satellite Maps
  • Weather Map
  • Weather Widgets
  • user-avatar
    Login

    Hourly Weather Lezhe

    Today, 8 December, Thursday

    Time Temperature Precipitation Wind Pressure Humidity
    00:00 +1°C° 0 mm 3 mps 751 mmHg 66%
    01:00 +1°C° 0 mm 3 mps 751 mmHg 65%
    02:00 +1°C° 0 mm 3 mps 751 mmHg 63%
    03:00 +1°C° 0 mm 3 mps 751 mmHg 60%
    04:00 +1°C° 0 mm 3 mps 751 mmHg 58%
    05:00 +1°C° 0 mm 3 mps 751 mmHg 56%
    06:00 +2°C° 0 mm 2 mps 751 mmHg 55%
    07:00 +2°C° 0 mm 2 mps 751 mmHg 53%
    08:00 +5°C° 0 mm 2 mps 751 mmHg 47%
    09:00 +7°C° 0 mm 2 mps 752 mmHg 42%
    10:00 +10°C° 0 mm 1 mps 752 mmHg 37%
    11:00 +11°C° 0 mm 1 mps 751 mmHg 36%
    12:00 +12°C° 0 mm 1 mps 751 mmHg 34%
    13:00 +12°C° 0 mm 1 mps 751 mmHg 32%
    14:00 +10°C° 0 mm 1 mps 751 mmHg 41%
    15:00 +8°C° 0 mm 1 mps 750 mmHg 50%
    16:00 +5°C° 0 mm 1 mps 750 mmHg 58%
    17:00 +5°C° 0 mm 1 mps 750 mmHg 57%
    18:00 +5°C° 0 mm 1 mps 750 mmHg 56%
    19:00 +4°C° 0 mm 1 mps 750 mmHg 56%
    20:00 +4°C° 0 mm 1 mps 750 mmHg 54%
    21:00 +4°C° 0 mm 1 mps 750 mmHg 52%
    22:00 +4°C° 0 mm 1 mps 750 mmHg 50%
    23:00 +4°C° 0 mm 1 mps 749 mmHg 50%

    Tomorrow, 9 December, Friday

    Time Temperature Precipitation Wind Pressure Humidity
    00:00 +4°C° 0 mm 1 mps 749 mmHg 50%
    01:00 +4°C° 0 mm 1 mps 749 mmHg 50%
    02:00 +4°C° 0 mm 1 mps 749 mmHg 51%
    03:00 +4°C° 0 mm 1 mps 748 mmHg 51%
    04:00 +4°C° 0 mm 1 mps 748 mmHg 51%
    05:00 +4°C° 0 mm 1 mps 748 mmHg 53%
    06:00 +4°C° 0 mm 1 mps 748 mmHg 55%
    07:00 +4°C° 0 mm 1 mps 748 mmHg 56%
    08:00 +7°C° 0 mm 1 mps 748 mmHg 52%
    09:00 +9°C° 0 mm 1 mps 748 mmHg 48%
    10:00 +12°C° 0 mm 1 mps 748 mmHg 44%
    11:00 +12°C° 0 mm 1 mps 748 mmHg 46%
    12:00 +13°C° 0 mm 1 mps 747 mmHg 49%
    13:00 +13°C° 0 mm 1 mps 747 mmHg 51%
    14:00 +11°C° 0 mm 1 mps 747 mmHg 62%
    15:00 +9°C° 0 mm 1 mps 746 mmHg 73%
    16:00 +6°C° 0 mm 1 mps 746 mmHg 83%
    17:00 +6°C° 0 mm 1 mps 746 mmHg 82%
    18:00 +6°C° 0 mm 1 mps 746 mmHg 81%
    19:00 +6°C° 0 mm 1 mps 746 mmHg 79%
    20:00 +6°C° 0 mm 1 mps 746 mmHg 75%
    21:00 +6°C° 0 mm 1 mps 746 mmHg 71%
    22:00 +6°C° 0 mm 1 mps 746 mmHg 68%
    23:00 +6°C° 0 mm 1 mps 746 mmHg 63%

    Day after tomorrow, 10 December, Saturday

    Time Temperature Precipitation Wind Pressure Humidity
    00:00 +5°C° 0 mm 2 mps 746 mmHg 58%
    01:00 +5°C° 0 mm 2 mps 745 mmHg 53%
    02:00 +5°C° 0 mm 2 mps 745 mmHg 50%
    03:00 +5°C° 0 mm 2 mps 745 mmHg 47%
    04:00 +5°C° 0 mm 2 mps 745 mmHg 43%
    05:00 +5°C° 0 mm 2 mps 745 mmHg 44%
    06:00 +5°C° 0 mm 2 mps 745 mmHg 44%
    07:00 +5°C° 0 mm 2 mps 745 mmHg 44%
    08:00 +7°C° 0 mm 2 mps 745 mmHg 44%
    09:00 +10°C° 0 mm 2 mps 745 mmHg 44%
    10:00 +13°C° 0 mm 1 mps 745 mmHg 44%
    11:00 +14°C° 0 mm 1 mps 745 mmHg 45%
    12:00 +15°C° 0 mm 1 mps 744 mmHg 46%
    13:00 +15°C° 0 mm 1 mps 744 mmHg 47%
    14:00 +13°C° 0 mm 1 mps 744 mmHg 56%
    15:00 +11°C° 0 mm 1 mps 743 mmHg 65%
    16:00 +9°C° 0 mm 1 mps 743 mmHg 73%
    17:00 +8°C° 0 mm 1 mps 743 mmHg 75%
    18:00 +8°C° 0 mm 1 mps 743 mmHg 76%
    19:00 +8°C° 0 mm 1 mps 743 mmHg 78%
    20:00 +7°C° 0 mm 1 mps 743 mmHg 78%
    21:00 +7°C° 0 mm 1 mps 743 mmHg 78%
    22:00 +7°C° 0 mm 1 mps 743 mmHg 78%
    23:00 +7°C° 0 mm 1 mps 743 mmHg 79%

    11 December, Sunday

    Time Temperature Precipitation Wind Pressure Humidity
    00:00 +7°C° 0 mm 1 mps 743 mmHg 79%
    01:00 +5°C° 0 mm 0 mps 742 mmHg 80%
    02:00 +5°C° 0 mm 0 mps 742 mmHg 80%
    03:00 +5°C° 0 mm 0 mps 742 mmHg 81%
    04:00 +5°C° 0 mm 0 mps 741 mmHg 81%
    05:00 +5°C° 0 mm 0 mps 741 mmHg 81%
    06:00 +5°C° 0 mm 0 mps 741 mmHg 81%
    07:00 +6°C° 0 mm 1 mps 741 mmHg 81%
    08:00 +9°C° 0 mm 1 mps 741 mmHg 72%
    09:00 +11°C° 0 mm 1 mps 741 mmHg 63%
    10:00 +14°C° 0 mm 1 mps 741 mmHg 54%
    11:00 +14°C° 0 mm 1 mps 741 mmHg 55%
    12:00 +15°C° 0 mm 1 mps 740 mmHg 57%
    13:00 +15°C° 0 mm 1 mps 740 mmHg 58%
    14:00 +13°C° 0 mm 1 mps 739 mmHg 68%
    15:00 +11°C° 0 mm 1 mps 739 mmHg 77%
    16:00 +9°C° 0 mm 1 mps 739 mmHg 87%
    17:00 +8°C° 0 mm 1 mps 739 mmHg 88%
    18:00 +8°C° 0 mm 1 mps 739 mmHg 88%
    19:00 +7°C° 0 mm 1 mps 739 mmHg 89%
    20:00 +7°C° 0 mm 1 mps 739 mmHg 89%
    21:00 +7°C° 0 mm 1 mps 739 mmHg 89%
    22:00 +7°C° 0 mm 1 mps 739 mmHg 89%
    23:00 +6°C° 0 mm 1 mps 739 mmHg 90%

    12 December, Monday

    Time Temperature Precipitation Wind Pressure Humidity
    00:00 +6°C° 0 mm 1 mps 738 mmHg 90%
    01:00 +6°C° 0 mm 1 mps 738 mmHg 90%
    02:00 +6°C° 0 mm 1 mps 738 mmHg 91%
    03:00 +6°C° 0 mm 1 mps 738 mmHg 91%
    04:00 +6°C° 0 mm 1 mps 738 mmHg 91%
    05:00 +6°C° 0 mm 1 mps 738 mmHg 90%
    06:00 +6°C° 0 mm 1 mps 738 mmHg 89%
    07:00 +6°C° 0 mm 1 mps 738 mmHg 88%
    08:00 +8°C° 0 mm 1 mps 738 mmHg 79%
    09:00 +10°C° 0 mm 1 mps 739 mmHg 71%
    10:00 +12°C° 0 mm 1 mps 739 mmHg 62%
    11:00 +12°C° 0 mm 1 mps 738 mmHg 59%
    12:00 +13°C° 0 mm 2 mps 738 mmHg 56%
    13:00 +14°C° 0 mm 2 mps 738 mmHg 53%
    14:00 +12°C° 0 mm 2 mps 738 mmHg 59%
    15:00 +9°C° 0 mm 2 mps 738 mmHg 65%
    16:00 +8°C° 0 mm 2 mps 738 mmHg 72%
    17:00 +7°C° 0 mm 2 mps 739 mmHg 73%
    18:00 +7°C° 0 mm 3 mps 739 mmHg 74%
    19:00 +5°C° 0 mm 3 mps 740 mmHg 75%
    20:00 +5°C° 0 mm 3 mps 740 mmHg 76%
    21:00 +4°C° 0 mm 3 mps 740 mmHg 77%
    22:00 +4°C° 0 mm 4 mps 741 mmHg 78%
    23:00 +4°C° 0 mm 4 mps 741 mmHg 78%

    13 December, Tuesday

    Time Temperature Precipitation Wind Pressure Humidity
    00:00 +3°C° 0 mm 4 mps 741 mmHg 79%
    01:00 +3°C° 0 mm 4 mps 741 mmHg 79%
    02:00 +3°C° 0 mm 3 mps 741 mmHg 79%
    03:00 +3°C° 0 mm 3 mps 741 mmHg 79%
    04:00 +3°C° 0 mm 3 mps 741 mmHg 79%
    05:00 +3°C° 0 mm 3 mps 741 mmHg 78%
    06:00 +3°C° 0 mm 3 mps 742 mmHg 77%
    07:00 +3°C° 0 mm 3 mps 742 mmHg 76%
    08:00 +4°C° 0 mm 3 mps 742 mmHg 70%
    09:00 +7°C° 0 mm 3 mps 743 mmHg 63%
    10:00 +9°C° 0 mm 3 mps 743 mmHg 57%
    11:00 +10°C° 0 mm 3 mps 743 mmHg 54%
    12:00 +10°C° 0 mm 3 mps 742 mmHg 52%
    13:00 +11°C° 0 mm 3 mps 742 mmHg 50%
    14:00 +9°C° 0 mm 3 mps 743 mmHg 56%
    15:00 +8°C° 0 mm 3 mps 743 mmHg 63%
    16:00 +5°C° 0 mm 3 mps 743 mmHg 69%
    17:00 +5°C° 0 mm 3 mps 743 mmHg 72%
    18:00 +4°C° 0 mm 3 mps 743 mmHg 75%
    19:00 +4°C° 0 mm 3 mps 744 mmHg 79%
    20:00 +3°C° 0 mm 3 mps 744 mmHg 80%
    21:00 +3°C° 0 mm 3 mps 744 mmHg 81%
    22:00 +3°C° 0 mm 3 mps 744 mmHg 83%
    23:00 +3°C° 0 mm 3 mps 744 mmHg 83%
    Show more